Flag for Colombia Weather past 2 weeks in Cúcuta, Colombia

Now
81 °F

Passing clouds.


Feels Like: 85 °F
Forecast: 69 / 97 °F
Wind: N/A

Location: San Antonio Del Tachira Airport

Current Time: Sep 22, 2014 at 12:10:08 AM

Latest Report: Sep 21, 2014 at 10:00 PM


Visibility: N/A

Pressure: 29.98 "Hg

Humidity: 79%

Dew point: 73 °F

Location of CúcutaLocation

Historic Weather in Cúcuta — Graph

°F

Cúcuta temperature yesterday

Maximum temperature yesterday: 97 °F (at 3:00 PM)
Minimum temperature yesterday: 77 °F (at 4:00 AM)
Average temperature yesterday: 85 °F

Past Weeks' High & Low Weather Summary

 TemperatureHumidityPressure
High99 °F (Sep 19, 12:00 PM)100% (Sep 14, 7:00 AM)30.04 "Hg (Sep 14, 7:00 AM)
Low63 °F (Sep 14, 7:00 AM)27% (Sep 15, 7:00 AM)29.62 "Hg (Sep 21, 8:00 PM)
Average84 °F56%29.91 "Hg
* Reported Sep 6 10:00 PM — Sep 21 10:00 PM, Cúcuta, Weather by CustomWeather, © 2014

Note: Actual official high and low records may vary slightly from our data, if they occured in-between our weather recording intervals... More about our weather records

Advertising

Cúcuta weather history for previous 24 hours

 ConditionsComfort  
Time TempWeatherWind HumidityBarometerVisibility
10:00 PM
Sep 21
81 °FPassing clouds.N/A79%29.98 "HgN/A
9:00 PM82 °FPassing clouds.N/A62%29.98 "HgN/A
8:00 PM82 °FPassing clouds.N/A62%29.62 "HgN/A
7:00 PM86 °FPassing clouds.N/A43%29.89 "HgN/A
5:00 PM88 °FBroken clouds.N/A43%29.83 "HgN/A
4:00 PM91 °FPartly sunny.N/A36%29.86 "HgN/A
3:00 PM97 °FScattered clouds.N/A30%29.86 "HgN/A
2:00 PM95 °FScattered clouds.N/A34%29.89 "HgN/A
1:00 PM93 °FPartly sunny.N/A34%29.95 "HgN/A
12:00 PM91 °FBroken clouds.N/A38%29.98 "HgN/A
11:00 AM90 °FScattered clouds.N/A46%29.95 "HgN/A
10:00 AM86 °FScattered clouds.N/A52%29.98 "HgN/A
9:00 AM82 °FPartly sunny.N/A58%30.01 "HgN/A
8:00 AM81 °FPartly sunny.N/A66%30.01 "HgN/A
7:00 AM79 °FPartly sunny.N/A58%29.98 "HgN/A
6:00 AM77 °FPartly sunny.N/A69%29.95 "HgN/A
4:00 AM77 °FPassing clouds.N/A69%29.92 "HgN/A
1:00 AM79 °FPassing clouds.N/A61%29.95 "HgN/A
Weather by CustomWeather, © 2014

See weather overviewHow to use our weather pages